Simultaneous Nadir Overpasses (SNOs) Predictions

Prediction of SNOs between METOP-B and TERRA Satellite Orbit:

Table of predicted SNOs for the next 14.0 days since TLE Epoch: 10/3/2020
Index Date (METOP-B) Time (METOP-B) Lat,Lon (METOP-B) SZA (METOP-B ) Date (TERRA) Time (TERRA) Lat,Lon (TERRA) SZA (TERRA ) Distance(km) Time Diff (sec)
1 10/03/2020 21:24:15 81.29, -94.11 88.73 10/03/2020 21:24:29 81.30, -94.01 88.75 1.87 14
2 10/03/2020 22:14:55 -81.29, 73.70 91.20 10/03/2020 22:13:56 -81.29, 73.52 91.26 2.97 59
3 10/06/2020 16:58:39 81.29, -27.74 89.82 10/06/2020 16:58:44 81.30, -27.57 89.85 2.91 5
4 10/06/2020 17:49:19 -81.29, 140.11 90.10 10/06/2020 17:48:11 -81.29, 139.99 90.15 2.07 68
5 10/09/2020 11:42:22 -81.28,-128.78 89.12 10/09/2020 11:43:32 -81.29,-128.88 89.10 1.72 70
6 10/09/2020 12:33:01 81.29, 39.01 90.95 10/09/2020 12:32:58 81.29, 38.83 90.93 3.07 3
7 10/12/2020 07:16:46 -81.28, -62.40 88.05 10/12/2020 07:17:47 -81.29, -62.48 88.03 1.28 61
8 10/12/2020 08:07:25 81.29, 105.36 92.02 10/12/2020 08:07:13 81.29, 105.20 92.00 2.54 12
9 10/15/2020 02:51:10 -81.28, 3.95 87.00 10/15/2020 02:52:02 -81.28, 3.89 86.98 1.06 52
